Wind_Speed
36 36 36 36 35 35 35 35 35 35 33 30 28 29 30 32 34 34 33 29 26 26 27 27 25 23 23 23 23 22 20 18 17 16 16 16 16 15 15 15 15 15 16 16 15 15 14 13 12 12 11 11 11 11 12 12 12 13 13 14 14 15 15 15 15 15 15 15 15
30 31 31 31 31 32 33 32 31 30 28 26 24 26 28 30 31 31 29 27 27 26 26 26 25 23 22 21 20 19 18 17 16 15 15 15 15 15 15 15 16 16 17 16 16 15 13 11 11 10 10 10 10 11 11 12 12 13 13 14 15 15 16 16 16 16 16 16 16
22 22 23 25 28 29 29 28 27 26 25 22 22 23 24 26 27 27 27 27 27 26 26 28 28 26 23 19 17 16 15 15 15 15 15 15 15 15 15 16 16 16 16 16 15 14 12 11 10 10 10 11 11 11 12 12 13 13 14 15 15 16 16 16 16 16 16 17 17
17 17 18 22 25 26 25 24 23 22 22 21 21 22 23 24 25 25 26 26 24 24 26 28 28 26 23 19 16 13 13 15 15 15 15 15 15 15 15 15 15 15 15 14 14 13 12 11 11 11 11 11 12 12 13 13 14 14 15 15 16 16 17 17 17 17 18 18 18
14 15 16 18 20 21 21 20 19 19 19 20 21 21 21 21 22 23 23 22 21 21 24 26 25 24 23 21 17 13 12 14 14 15 15 15 15 15 15 15 16 16 15 14 14 13 12 12 12 12 12 13 13 13 14 14 15 15 16 16 16 17 17 18 18 19 19 20 20
13 13 14 15 15 16 16 15 14 14 16 18 20 20 21 20 20 20 19 18 18 19 21 23 23 23 23 22 19 14 11 12 13 13 14 14 15 15 16 18 19 19 18 16 15 14 13 12 12 13 13 13 14 14 15 15 15 16 17 18 18 18 19 19 20 20 21 21 21
12 12 12 12 13 13 12 10 10 12 15 17 19 20 21 21 20 18 16 15 15 16 17 19 20 22 23 22 19 14 11 10 12 12 13 13 14 16 18 20 20 19 18 16 14 13 12 12 13 13 13 14 14 15 15 16 16 17 18 20 20 20 21 21 21 21 21 21 21
12 11 11 12 14 14 13 10 10 11 14 16 17 18 19 19 19 18 15 13 12 12 13 16 18 20 21 20 16 11 9 11 12 12 13 14 15 17 19 18 17 16 15 13 12 12 12 13 13 13 14 14 15 16 16 16 17 18 19 20 21 21 21 21 21 21 21 21 21
14 13 14 16 17 17 15 13 11 10 10 12 13 14 15 16 18 17 15 12 11 10 11 14 16 18 18 17 12 10 10 11 13 13 14 15 16 17 17 16 15 14 13 12 11 12 13 13 14 14 15 15 16 16 17 17 17 18 19 20 20 20 20 21 21 21 21 21 21
16 17 17 18 18 17 16 15 13 11 10 9 10 11 12 14 16 16 15 13 11 11 12 14 15 16 16 14 11 11 12 13 14 15 16 16 16 15 14 14 13 13 12 12 12 13 13 14 15 15 16 16 17 17 17 16 17 17 18 19 19 20 20 21 21 21 21 22 22
18 18 18 17 17 16 15 14 14 13 13 11 10 10 12 13 14 15 15 15 15 16 16 16 16 16 15 14 13 14 15 16 16 16 15 14 13 13 13 13 12 13 13 13 14 14 15 16 16 17 17 16 16 16 16 16 17 17 18 19 20 20 21 21 22 22 22 23 23
18 18 17 16 15 14 13 12 13 15 16 15 12 11 11 12 13 14 15 17 18 20 20 20 19 18 17 16 16 17 18 18 18 16 14 12 12 12 12 13 13 14 15 15 15 16 17 18 18 17 16 16 15 16 16 17 18 18 19 20 21 21 22 22 23 23 23 23 24
17 17 15 14 13 12 11 10 12 15 17 17 15 12 11 11 12 13 15 16 18 20 21 22 21 20 19 18 19 19 20 20 18 16 13 12 12 13 14 14 15 16 16 17 17 18 18 19 17 16 15 15 16 17 17 18 19 20 21 21 22 22 22 23 23 23 23 24 24
16 16 15 13 12 10 9 9 11 14 16 17 15 12 11 11 11 12 13 15 16 18 20 22 22 21 20 20 20 21 21 19 17 16 14 14 14 15 16 16 17 18 18 18 18 19 19 17 16 15 15 16 17 18 19 19 20 21 21 22 22 22 22 22 23 23 24 24 25
16 16 15 15 13 11 9 9 11 13 15 16 14 12 10 10 10 10 12 13 15 17 19 21 21 21 21 21 20 19 18 18 16 15 15 16 17 18 18 19 19 19 19 19 19 19 17 15 15 15 16 17 18 19 19 20 20 20 21 21 21 22 22 23 23 24 25 25 26
14 14 15 15 14 12 10 9 11 14 16 16 14 12 11 10 10 11 12 14 16 18 19 20 20 20 20 19 18 16 16 17 16 16 16 16 17 18 19 20 20 20 20 20 19 18 16 15 15 16 17 18 19 19 19 19 20 20 21 21 22 22 23 24 25 25 26 27 27
12 12 12 12 13 13 11 10 12 15 17 17 16 13 12 11 11 12 13 15 16 18 19 19 18 18 17 16 15 15 17 18 18 17 16 16 17 18 18 19 19 19 19 19 18 17 16 16 16 17 18 18 18 18 19 19 20 20 21 22 23 23 24 25 26 26 27 28 28
11 10 9 9 10 11 11 11 13 15 17 17 15 13 12 12 12 13 14 15 16 17 17 17 17 16 15 14 15 17 19 19 18 17 16 16 16 17 17 17 17 16 16 16 17 17 17 17 18 18 18 18 18 18 19 20 20 21 22 23 23 24 25 25 26 27 27 28 28
10 9 9 9 9 9 10 11 12 13 14 13 13 13 12 12 11 12 13 14 15 15 16 16 15 14 14 15 17 18 19 19 17 16 15 15 15 16 16 17 15 14 14 15 16 17 17 18 18 18 18 18 18 19 20 20 21 22 22 23 24 24 25 25 26 26 27 27 27
12 12 12 11 11 11 12 12 13 13 13 13 12 12 12 11 10 10 11 12 13 13 13 13 13 14 16 17 18 18 18 17 15 13 13 13 13 14 15 15 14 14 14 15 16 17 17 17 17 17 18 18 19 20 20 21 21 22 22 23 23 24 24 25 25 25 25 25 25
14 15 15 14 14 14 14 14 14 13 13 12 12 12 11 11 11 11 11 12 12 12 12 13 15 16 17 17 17 16 15 14 12 11 11 12 12 13 14 15 14 14 14 15 15 16 16 17 17 17 18 18 19 19 20 20 20 21 21 22 22 23 23 23 24 24 24 24 23
14 15 15 16 15 15 14 14 13 12 12 12 12 12 12 12 12 13 13 13 13 14 14 16 17 17 16 15 14 13 12 11 11 11 11 12 13 14 14 14 14 14 14 14 15 15 16 16 16 17 17 17 18 18 18 19 19 19 20 20 21 21 22 22 22 22 22 22 22
14 15 15 15 15 14 14 13 13 12 12 12 12 12 12 13 13 13 13 13 13 14 15 16 16 15 13 13 13 12 12 12 12 12 13 14 14 14 14 13 13 13 13 13 14 14 15 15 15 16 16 16 17 17 17 17 18 18 19 19 19 20 20 20 20 21 21 21 21
14 14 14 14 14 14 13 13 12 12 12 12 12 12 12 12 12 12 12 13 13 14 14 14 13 13 12 13 13 12 12 12 13 13 13 14 13 13 12 12 12 12 12 13 13 14 14 14 14 15 15 15 15 16 16 17 17 17 17 18 18 18 18 18 18 19 19 20 19
13 13 13 13 13 13 13 13 13 12 12 12 12 12 11 11 12 12 12 12 13 13 13 13 13 13 12 12 12 12 12 12 13 13 13 12 11 11 11 11 11 11 12 12 13 13 13 14 14 14 14 14 14 15 15 16 16 16 16 16 16 16 16 16 16 17 17 18 18
12 13 13 13 13 13 14 13 13 13 12 12 12 12 12 12 12 13 13 13 13 12 12 12 12 12 11 11 11 11 11 11 12 11 11 10 10 10 10 10 10 11 12 12 12 13 13 13 13 13 13 13 13 13 14 14 15 15 15 16 16 15 15 15 15 15 16 17 17
12 12 13 13 13 13 13 13 13 13 13 13 13 13 13 13 13 13 12 12 12 11 11 10 10 10 10 10 10 10 10 10 10 10 9 9 9 9 10 10 11 11 12 12 12 13 13 13 13 13 12 12 11 12 12 13 14 14 15 15 15 15 15 14 14 14 14 15 16
12 12 12 12 12 12 12 12 12 13 13 14 14 14 14 14 13 13 12 11 10 10 9 9 9 9 9 9 9 9 9 9 9 9 9 9 9 10 10 11 11 12 12 12 12 12 13 13 13 12 12 11 11 11 12 13 13 14 14 14 15 15 14 14 14 14 14 14 15
12 12 12 12 12 13 13 13 13 13 13 14 14 14 14 13 13 12 11 10 10 9 9 8 8 8 8 8 8 8 9 9 9 9 10 10 11 11 12 12 12 12 12 12 12 12 12 12 12 12 11 11 11 11 12 12 13 13 14 14 14 14 14 14 14 14 14 15 14
13 13 13 13 13 14 14 14 14 14 14 13 13 12 12 11 11 10 10 9 9 8 8 8 8 8 8 8 8 9 9 10 10 11 11 12 12 12 13 13 12 12 12 12 12 12 12 11 11 11 10 10 11 11 11 12 12 13 13 13 14 14 14 13 14 14 14 15 14
14 14 14 14 14 14 14 14 14 13 13 12 12 11 10 10 9 9 8 8 8 7 7 7 7 8 8 8 9 10 10 11 12 12 12 13 13 13 13 13 12 12 12 12 12 11 11 11 10 10 10 10 11 11 11 11 12 12 12 13 13 13 13 13 13 14 14 14 13
14 14 14 14 13 13 13 13 12 12 11 11 10 10 9 9 8 8 7 7 7 7 7 8 8 8 9 9 10 11 12 12 13 13 13 13 13 13 13 13 12 12 12 11 11 11 11 11 10 10 10 10 10 11 11 11 12 12 12 12 13 12 12 12 13 13 13 13 12
13 13 13 13 12 12 12 11 11 10 10 9 9 8 8 7 7 7 7 7 7 7 7 8 9 9 10 10 11 12 12 12 12 12 12 12 12 12 12 12 12 11 11 11 11 11 11 11 10 10 10 10 10 11 11 11 12 12 12 12 12 12 12 12 12 13 13 12 11
13 13 12 12 12 11 11 11 10 9 9 8 7 7 7 6 6 6 6 7 7 7 8 8 9 9 10 10 11 11 12 12 12 12 11 11 11 11 11 11 11 11 11 11 11 11 11 11 11 10 10 10 10 10 11 11 12 12 12 12 13 12 12 12 12 12 12 11 11
12 12 12 11 11 10 10 9 9 8 7 6 6 6 6 6 6 6 6 6 7 7 8 8 8 9 9 10 10 11 11 11 11 11 11 10 10 11 11 11 11 11 11 11 11 12 11 11 11 11 10 10 10 10 10 11 11 12 12 12 13 13 12 12 12 12 11 11 10
10 10 10 9 9 8 8 7 6 5 5 5 5 5 5 5 5 5 5 6 6 7 7 8 8 8 9 9 10 10 10 11 11 11 10 10 10 11 11 11 11 11 11 12 12 12 12 12 11 11 10 10 10 10 10 10 11 11 11 12 13 13 12 12 12 12 11 10 9
8 8 7 7 6 6 5 4 4 4 4 4 4 4 5 5 5 5 5 6 6 6 7 7 7 8 8 9 9 10 10 10 11 10 10 11 11 11 11 11 11 11 12 12 12 12 12 12 12 11 10 10 9 9 9 10 10 10 11 11 12 13 12 11 11 11 11 10 9
6 6 5 5 4 4 3 3 3 3 4 4 4 5 6 6 6 6 6 6 6 6 7 7 7 8 8 8 9 10 10 11 11 11 11 11 11 11 11 11 12 12 12 13 13 13 12 12 11 11 10 9 9 9 9 9 9 9 10 10 12 12 12 11 11 11 11 9 8
5 5 4 4 4 4 4 4 4 5 5 5 6 6 7 7 7 8 7 7 7 7 7 7 8 8 8 9 10 11 11 11 11 11 11 11 11 12 12 12 12 13 13 13 13 13 12 11 11 10 10 9 9 9 9 8 9 9 9 10 11 11 11 10 11 11 10 9 8
5 4 4 4 5 5 5 5 5 6 7 7 7 8 8 9 9 9 9 9 8 8 8 8 8 8 9 10 11 12 12 12 12 11 11 11 12 12 12 13 13 14 14 14 14 13 11 10 10 10 10 9 9 9 8 8 8 8 9 9 10 10 9 9 10 10 10 9 8
5 5 5 5 5 6 6 6 7 7 8 8 9 9 10 10 11 10 10 10 9 9 9 9 9 9 10 11 12 13 13 13 13 12 11 12 12 12 13 13 14 14 15 15 13 12 10 9 9 9 10 10 9 9 8 8 8 8 9 9 10 9 8 8 8 9 9 9 8
Wind_Direction
213 212 211 210 209 210 213 219 222 222 220 216 214 215 219 225 227 229 232 237 237 237 237 235 227 221 219 221 223 223 224 226 227 228 227 226 225 224 224 225 227 227 228 228 227 229 231 235 239 243 246 250 253 256 259 262 263 264 265 266 269 272 274 277 279 281 283 285 285
209 209 209 209 208 211 216 221 222 220 218 217 217 217 219 223 228 234 238 237 232 232 232 226 219 214 212 214 216 218 221 224 226 226 226 225 225 225 226 228 229 229 229 228 227 226 227 233 241 247 250 253 256 258 261 263 264 264 265 266 267 269 270 271 272 273 274 275 277
198 198 201 205 208 213 220 226 225 222 222 225 227 228 230 233 237 239 236 229 228 229 228 222 216 210 204 199 202 209 217 224 227 228 227 226 226 226 228 230 231 231 230 229 228 226 225 231 241 248 252 254 256 257 259 261 263 264 266 267 268 269 270 270 270 270 269 269 269
185 186 192 200 206 214 222 228 228 228 231 235 239 241 243 242 239 233 227 223 225 226 223 218 215 209 202 195 193 202 216 226 230 231 230 228 227 228 229 230 230 230 228 228 227 226 226 231 238 245 251 255 258 260 262 263 264 266 268 269 270 271 272 272 273 272 271 270 269
185 186 190 197 204 211 218 224 228 232 235 238 240 241 239 234 227 222 219 220 222 220 218 216 214 210 205 200 196 201 216 227 230 229 228 227 227 227 228 229 227 225 222 221 221 223 227 232 238 243 249 253 258 261 264 265 268 270 271 272 272 273 275 276 276 277 276 274 273
194 195 194 195 199 205 210 213 219 228 235 238 237 235 232 227 220 217 216 217 218 216 214 214 215 214 211 207 201 201 209 223 225 223 220 221 224 227 229 228 225 221 217 216 218 222 228 234 239 243 248 252 256 260 263 266 269 273 275 276 276 276 277 278 278 277 276 275 272
203 202 200 199 203 206 207 202 205 219 231 236 234 232 230 228 224 221 218 216 213 210 211 215 219 220 217 211 204 201 206 220 221 218 216 218 223 228 229 225 220 215 213 214 218 225 232 238 243 246 250 254 258 261 263 266 270 274 277 277 277 276 275 274 274 273 272 270 269
209 206 206 211 216 217 216 210 206 213 223 230 232 231 229 228 225 223 221 217 210 208 213 221 225 223 217 210 204 206 218 226 224 221 219 220 224 227 226 219 214 211 212 215 222 230 238 244 248 253 256 259 261 262 263 265 268 271 273 273 273 272 270 269 268 267 267 266 266
208 207 208 214 219 221 221 219 217 219 223 227 226 225 223 221 219 220 220 220 216 217 221 226 225 219 212 206 209 224 234 230 225 221 220 220 222 223 219 212 210 211 216 222 229 236 241 246 251 254 256 258 259 259 260 262 264 266 268 268 269 268 267 266 265 265 265 264 264
205 206 208 211 217 221 223 223 223 225 225 220 211 207 207 209 210 212 214 215 217 218 219 219 217 211 207 206 219 233 236 231 225 220 217 217 219 219 215 211 212 216 223 229 234 237 241 245 247 250 252 253 254 257 259 262 264 265 266 266 266 266 266 265 265 265 264 264 265
204 204 206 209 214 219 222 222 222 225 225 217 203 193 193 198 204 207 208 207 205 205 206 206 207 205 204 209 220 228 229 225 220 217 215 216 220 223 223 222 224 226 230 233 236 238 240 241 241 243 245 249 253 257 260 263 265 265 265 265 265 265 265 265 265 265 265 266 267
202 201 202 205 211 216 219 219 221 224 226 223 214 202 195 197 203 207 208 206 203 200 199 199 201 202 204 207 214 218 218 215 212 211 214 221 228 233 235 236 237 237 237 237 238 239 238 237 237 239 243 248 253 257 260 262 263 264 263 263 263 264 264 265 265 266 267 268 270
202 201 201 205 211 217 219 218 220 223 226 227 225 217 207 205 207 209 210 209 207 204 202 199 199 200 201 205 210 212 211 208 205 206 213 224 234 239 242 244 245 244 242 240 240 240 239 238 238 242 247 253 257 259 260 260 260 261 261 262 263 264 265 266 268 269 271 272 273
210 209 209 212 216 219 219 218 220 223 226 228 227 222 214 211 212 213 211 210 209 208 205 202 200 199 201 206 210 211 210 207 205 208 215 224 233 238 242 245 247 248 246 245 244 244 243 243 245 249 254 257 258 259 259 259 260 261 262 264 266 267 269 271 272 274 275 276 277
221 221 220 219 219 217 214 214 221 226 229 228 226 221 216 214 215 214 210 206 205 204 204 203 202 202 206 210 213 213 212 212 213 215 219 225 232 236 239 242 245 248 249 249 250 250 252 255 256 257 257 258 258 259 260 261 263 264 266 269 271 273 275 276 278 279 279 280 280
224 225 223 221 218 214 210 211 224 232 234 232 229 225 219 213 214 216 211 203 198 198 199 201 203 207 210 213 213 215 218 223 225 227 228 230 233 235 237 239 242 245 247 250 252 255 259 262 263 261 260 260 260 262 264 266 268 271 273 274 276 278 279 280 281 282 282 282 283
221 222 221 219 216 213 210 211 224 234 238 237 235 228 219 209 209 212 212 204 200 197 197 200 205 209 212 212 213 218 224 230 235 238 239 238 238 238 238 238 239 241 245 249 253 256 260 261 262 262 262 263 265 268 270 272 274 276 277 279 280 281 281 282 282 283 283 283 284
214 213 211 208 208 207 206 208 217 226 232 232 228 219 207 199 198 202 207 207 205 203 203 206 209 212 214 215 218 223 228 233 237 241 242 241 242 242 242 242 242 244 248 253 256 257 258 259 261 263 266 268 271 273 275 276 278 279 280 280 281 281 282 282 283 283 284 284 285
197 192 185 180 181 182 184 187 195 202 206 207 203 197 191 189 189 195 205 214 216 215 215 215 216 219 222 224 225 226 229 232 236 239 241 241 241 242 244 246 248 249 251 255 257 257 258 260 263 267 271 274 275 277 278 278 279 280 281 281 282 282 283 283 284 285 286 286 287
170 165 159 156 154 153 154 157 163 169 174 177 178 177 178 182 188 198 210 221 226 226 224 224 227 231 232 232 229 227 227 228 231 236 239 241 242 243 245 248 250 250 249 250 252 256 259 263 268 271 274 275 277 277 278 280 281 282 283 283 284 285 285 286 287 287 288 289 290
155 152 150 147 145 144 143 145 149 155 161 166 168 169 174 182 192 202 210 215 218 221 224 230 235 238 237 234 229 225 223 224 226 232 238 241 243 244 245 247 248 248 248 250 253 257 262 266 269 271 273 275 276 278 280 282 283 284 285 286 287 288 288 289 289 290 290 291 291
159 156 152 147 145 145 146 148 152 157 164 169 172 175 180 185 192 199 203 206 209 214 220 227 234 237 236 232 228 225 225 226 229 233 237 240 242 243 244 245 247 249 251 254 257 260 263 266 268 271 274 276 279 281 283 285 286 287 288 289 290 290 291 292 292 292 293 292 292
163 156 153 153 150 151 154 157 161 166 171 178 182 184 186 189 194 199 203 208 213 217 222 226 231 233 231 229 227 228 230 233 235 236 237 239 241 243 245 247 250 253 256 259 261 263 265 268 272 275 278 281 283 285 286 287 288 289 290 291 292 293 294 295 295 295 294 293 292
165 162 159 157 160 160 161 165 169 173 179 185 187 189 191 196 201 206 211 215 219 221 222 224 225 225 225 225 226 228 232 235 237 237 238 239 242 245 249 253 256 259 261 264 266 268 271 274 278 281 284 286 287 289 289 290 291 293 294 295 296 297 298 298 298 297 297 296 294
173 172 169 170 171 171 172 175 179 181 182 185 188 192 196 200 205 208 211 212 213 213 213 214 215 217 220 223 226 229 233 236 238 239 241 243 246 250 254 259 262 265 267 270 272 275 278 281 283 285 287 289 291 292 294 295 296 297 298 299 299 299 299 299 299 299 299 298 297
176 177 178 179 177 175 176 178 179 180 181 183 186 189 193 196 198 199 199 199 200 202 205 209 213 218 222 226 230 233 235 237 239 242 245 248 251 256 260 265 269 271 274 276 278 281 283 285 286 288 289 292 294 297 298 300 301 301 302 301 301 300 299 299 299 300 300 300 298
174 174 174 174 174 173 173 174 176 176 177 178 180 182 185 187 188 188 189 191 195 200 206 212 218 224 228 232 235 237 239 242 245 248 252 255 259 263 267 271 274 277 279 280 282 284 285 287 289 291 293 296 298 300 302 303 303 303 303 302 301 300 299 299 299 301 302 302 300
165 165 166 167 168 169 171 174 175 174 174 174 175 177 179 180 182 184 187 191 197 203 210 217 224 229 233 237 240 243 247 250 254 258 262 265 268 271 273 276 278 279 281 283 284 285 287 289 292 294 297 300 301 302 303 303 303 302 302 301 301 301 301 301 302 303 304 305 302
159 160 161 162 165 167 170 172 174 174 174 174 174 176 177 179 181 184 188 192 198 204 211 219 225 231 237 243 248 253 257 260 263 267 270 272 274 276 278 279 280 281 282 283 284 286 288 291 294 297 300 301 302 302 302 302 302 302 301 301 301 302 303 304 305 307 307 308 307
158 160 162 164 166 168 170 171 173 174 174 174 174 176 177 179 181 183 187 192 198 204 211 218 226 234 242 250 257 263 266 267 268 270 272 274 275 277 278 279 280 280 281 282 284 285 288 291 294 297 299 300 300 300 300 300 300 301 301 302 303 304 305 306 308 310 311 311 311
159 161 164 166 168 169 170 171 171 172 172 173 174 175 176 178 180 184 188 194 200 206 213 221 230 238 247 256 262 265 267 269 270 270 271 272 274 276 278 279 279 279 279 281 283 285 287 289 291 293 295 296 296 297 298 299 300 301 302 303 304 305 306 307 310 312 313 314 314
162 164 166 168 169 170 170 170 171 172 172 173 174 175 176 179 183 189 196 203 211 218 226 233 239 246 252 259 262 265 266 268 268 269 269 271 272 275 277 278 277 277 278 280 281 283 285 287 289 290 291 292 294 295 297 299 300 301 302 304 305 306 307 308 311 313 315 316 317
165 167 169 171 172 172 172 173 173 174 175 176 178 179 183 188 194 202 211 221 230 237 243 247 251 254 256 258 259 261 262 264 265 266 268 270 272 275 276 276 275 275 276 277 279 280 282 284 287 288 289 290 293 295 298 299 301 302 303 304 306 308 308 310 312 315 317 317 318
169 171 174 175 176 176 176 177 177 179 181 183 186 190 196 204 212 222 232 241 248 255 259 262 263 262 261 260 259 258 258 260 262 263 265 268 270 273 274 273 272 273 274 275 276 278 281 282 284 286 287 289 292 295 297 299 300 301 302 304 307 309 310 312 314 316 317 317 317
174 176 178 180 180 180 181 182 183 185 189 194 201 208 215 223 231 241 250 258 263 267 270 271 271 270 267 264 262 259 257 257 260 262 264 266 269 270 270 268 269 271 272 273 275 277 279 281 282 283 284 287 290 293 296 298 300 301 303 305 308 311 312 313 314 316 317 317 316
180 182 184 186 186 186 187 190 192 198 206 217 226 234 241 248 255 263 268 272 273 273 273 273 273 271 268 265 263 260 258 258 260 263 265 265 266 266 265 265 266 269 270 271 273 275 277 278 279 279 281 284 288 292 295 298 299 302 304 307 309 312 313 314 315 316 317 317 314
187 189 193 196 198 200 202 208 217 227 239 249 260 268 275 281 285 287 286 283 281 278 275 273 270 267 264 262 260 259 259 260 262 263 264 264 263 262 261 261 262 264 266 267 270 272 274 276 277 278 279 282 286 290 294 297 300 303 306 309 311 313 314 315 315 316 317 317 313
197 202 209 216 224 230 238 247 259 269 278 286 294 298 301 303 304 303 300 296 292 287 282 277 271 266 261 258 255 253 254 256 258 259 259 258 257 256 255 256 257 259 262 264 267 270 273 275 277 277 279 282 285 290 293 297 300 303 306 309 311 314 316 316 315 315 317 317 311
212 221 231 244 257 267 277 286 295 300 304 309 312 312 311 311 312 311 310 305 300 293 286 279 271 263 255 249 245 244 246 249 251 252 252 250 250 250 250 250 253 257 261 264 268 271 274 276 277 278 280 282 286 288 291 294 298 301 304 308 311 314 317 318 316 316 317 317 312
230 242 254 267 278 288 297 306 310 312 313 315 316 315 313 313 314 314 312 309 303 296 289 279 269 259 249 242 237 237 239 242 245 246 245 244 245 246 247 248 252 258 264 269 273 276 277 277 278 279 282 284 286 287 288 290 294 298 302 305 308 312 317 320 318 317 318 318 315
247 258 269 280 289 297 305 311 313 313 315 315 314 313 313 314 314 314 311 308 303 297 289 279 267 255 245 238 235 234 235 238 241 242 242 240 242 243 246 249 253 260 268 274 277 279 278 278 280 282 284 285 285 286 286 287 291 295 299 302 305 308 311 316 318 319 318 317 315
Height
1497 1497 1498 1499 1500 1501 1502 1503 1504 1505 1506 1507 1507 1507 1508 1509 1511 1513 1514 1515 1516 1517 1517 1518 1517 1517 1518 1518 1519 1521 1522 1524 1525 1526 1527 1527 1528 1529 1530 1531 1531 1532 1532 1533 1534 1534 1535 1536 1536 1537 1537 1537 1538 1538 1539 1539 1540 1540 1541 1541 1542 1542 1542 1542 1542 1542 1543 1543 1543
1495 1496 1496 1497 1498 1499 1501 1502 1503 1504 1504 1505 1505 1506 1507 1509 1511 1512 1514 1516 1516 1516 1516 1516 1515 1516 1517 1517 1518 1519 1521 1523 1524 1525 1526 1527 1527 1528 1529 1530 1531 1531 1532 1532 1533 1534 1534 1535 1535 1536 1536 1536 1537 1537 1537 1538 1539 1539 1539 1540 1540 1540 1540 1541 1541 1541 1541 1541 1541
1493 1494 1495 1497 1497 1499 1500 1501 1502 1503 1504 1504 1505 1506 1507 1509 1511 1512 1513 1514 1515 1515 1514 1515 1515 1516 1517 1517 1517 1519 1520 1522 1523 1524 1525 1526 1527 1528 1529 1529 1530 1531 1531 1532 1532 1533 1533 1534 1534 1535 1535 1535 1536 1536 1536 1537 1537 1537 1538 1538 1538 1538 1538 1538 1539 1539 1539 1539 1539
1492 1494 1495 1496 1497 1499 1500 1501 1502 1503 1504 1505 1505 1507 1508 1509 1510 1511 1512 1513 1514 1514 1514 1516 1517 1517 1517 1517 1518 1519 1520 1521 1522 1523 1524 1525 1526 1527 1528 1529 1529 1530 1530 1531 1531 1532 1532 1533 1533 1534 1534 1534 1535 1535 1535 1535 1536 1536 1536 1537 1537 1537 1537 1537 1537 1537 1537 1538 1538
1492 1493 1495 1496 1497 1499 1500 1501 1502 1503 1504 1505 1506 1507 1507 1508 1509 1510 1511 1512 1513 1513 1515 1516 1517 1517 1517 1517 1518 1519 1520 1521 1522 1523 1524 1525 1526 1527 1527 1528 1528 1528 1529 1529 1530 1530 1531 1532 1532 1532 1533 1533 1533 1534 1534 1534 1534 1535 1535 1535 1535 1535 1535 1535 1536 1536 1536 1536 1536
1492 1493 1495 1496 1498 1499 1500 1501 1502 1503 1504 1505 1506 1507 1507 1508 1509 1510 1510 1511 1512 1513 1514 1516 1517 1518 1518 1518 1518 1518 1519 1520 1521 1522 1523 1524 1525 1526 1526 1527 1527 1527 1527 1527 1528 1529 1529 1530 1531 1531 1532 1532 1532 1532 1533 1533 1533 1533 1534 1534 1534 1534 1534 1534 1534 1534 1534 1535 1535
1492 1493 1494 1496 1497 1498 1499 1500 1502 1503 1504 1505 1506 1506 1507 1507 1508 1509 1510 1511 1512 1513 1514 1516 1517 1518 1518 1518 1518 1518 1519 1520 1520 1521 1522 1523 1524 1525 1525 1525 1525 1525 1525 1525 1526 1527 1528 1529 1529 1530 1530 1531 1531 1531 1532 1532 1532 1532 1532 1532 1533 1533 1533 1533 1533 1533 1533 1533 1533
1491 1492 1494 1495 1496 1497 1499 1500 1501 1502 1504 1504 1505 1505 1506 1506 1507 1508 1509 1510 1511 1512 1514 1516 1517 1517 1517 1517 1517 1518 1519 1519 1520 1521 1522 1523 1524 1524 1524 1524 1524 1524 1525 1525 1525 1526 1527 1528 1528 1529 1529 1529 1530 1530 1530 1531 1531 1531 1531 1531 1531 1531 1531 1531 1531 1531 1531 1531 1531
1491 1492 1493 1494 1495 1497 1498 1500 1501 1502 1502 1503 1504 1504 1504 1505 1506 1507 1508 1510 1511 1512 1513 1515 1516 1516 1516 1517 1517 1518 1519 1519 1519 1520 1521 1522 1522 1523 1522 1523 1523 1524 1524 1524 1525 1526 1526 1527 1527 1528 1528 1528 1528 1529 1529 1529 1529 1529 1530 1530 1530 1530 1529 1529 1529 1529 1529 1529 1529
1489 1491 1492 1493 1494 1496 1497 1499 1500 1502 1502 1503 1503 1503 1503 1504 1505 1506 1507 1508 1509 1511 1513 1514 1514 1515 1515 1516 1517 1518 1518 1519 1519 1520 1520 1521 1521 1522 1522 1522 1522 1523 1523 1523 1524 1525 1525 1526 1526 1527 1527 1527 1527 1527 1527 1527 1528 1528 1528 1528 1528 1528 1528 1528 1528 1528 1528 1528 1528
1488 1489 1491 1492 1493 1495 1496 1497 1499 1501 1502 1502 1502 1502 1503 1503 1504 1505 1506 1506 1508 1510 1512 1513 1514 1514 1515 1516 1517 1517 1517 1518 1518 1519 1519 1519 1520 1521 1521 1521 1522 1522 1522 1523 1523 1524 1524 1525 1525 1525 1525 1526 1526 1526 1526 1526 1526 1526 1526 1526 1526 1526 1526 1526 1526 1526 1526 1526 1526
1487 1488 1490 1491 1492 1493 1495 1496 1498 1500 1501 1501 1502 1502 1502 1502 1503 1503 1504 1505 1506 1507 1509 1511 1512 1512 1513 1514 1515 1516 1516 1517 1517 1517 1518 1518 1519 1520 1520 1521 1521 1522 1522 1522 1522 1522 1523 1523 1523 1523 1523 1524 1524 1524 1524 1524 1524 1524 1524 1524 1524 1524 1524 1524 1524 1524 1524 1524 1524
1485 1487 1488 1490 1491 1492 1493 1494 1496 1498 1499 1500 1501 1501 1501 1501 1502 1502 1503 1504 1505 1506 1507 1508 1509 1511 1512 1512 1513 1514 1514 1515 1515 1516 1517 1518 1518 1519 1520 1520 1521 1521 1521 1521 1521 1522 1522 1522 1521 1522 1522 1522 1522 1522 1522 1522 1523 1523 1523 1523 1523 1523 1522 1522 1522 1522 1522 1522 1522
1484 1486 1487 1488 1490 1491 1492 1493 1494 1496 1498 1499 1499 1500 1500 1500 1500 1501 1502 1502 1503 1505 1506 1507 1508 1509 1510 1511 1512 1512 1513 1514 1514 1515 1516 1517 1517 1518 1519 1519 1520 1520 1520 1520 1520 1520 1520 1520 1520 1520 1520 1520 1520 1521 1521 1521 1521 1521 1521 1521 1521 1521 1521 1521 1521 1521 1521 1521 1520
1483 1484 1486 1487 1488 1489 1490 1492 1493 1495 1497 1497 1498 1498 1499 1499 1499 1500 1501 1501 1502 1503 1505 1506 1507 1508 1509 1510 1511 1511 1512 1513 1514 1515 1515 1516 1516 1517 1517 1518 1518 1519 1519 1519 1519 1519 1519 1519 1519 1519 1519 1519 1519 1519 1519 1519 1519 1519 1519 1519 1519 1519 1519 1519 1518 1518 1518 1518 1518
1482 1483 1484 1485 1487 1488 1489 1490 1492 1494 1495 1496 1497 1497 1498 1498 1499 1500 1501 1501 1502 1502 1504 1505 1506 1507 1508 1509 1510 1511 1512 1513 1514 1514 1514 1514 1515 1515 1515 1516 1516 1517 1517 1517 1518 1517 1517 1517 1517 1517 1517 1517 1517 1517 1517 1517 1518 1517 1517 1517 1517 1517 1517 1517 1517 1516 1516 1516 1516
1481 1482 1483 1484 1485 1487 1487 1488 1491 1492 1494 1495 1496 1497 1497 1497 1498 1499 1500 1501 1502 1502 1503 1504 1505 1507 1508 1508 1509 1511 1512 1513 1513 1513 1513 1513 1513 1514 1514 1514 1514 1515 1515 1516 1516 1516 1516 1516 1516 1516 1516 1516 1516 1516 1516 1516 1516 1516 1516 1516 1515 1515 1515 1515 1514 1514 1514 1513 1513
1479 1480 1482 1482 1484 1485 1486 1487 1489 1491 1492 1493 1495 1496 1496 1497 1497 1498 1500 1501 1502 1502 1503 1504 1505 1506 1507 1507 1508 1510 1511 1512 1512 1512 1512 1513 1512 1512 1512 1513 1513 1513 1513 1513 1514 1514 1514 1514 1515 1515 1514 1514 1514 1514 1514 1514 1514 1514 1514 1513 1513 1513 1513 1512 1512 1512 1511 1511 1510
1478 1479 1480 1482 1482 1483 1484 1485 1487 1489 1491 1492 1493 1494 1495 1496 1496 1497 1498 1500 1501 1501 1502 1503 1503 1504 1505 1506 1507 1508 1510 1511 1511 1511 1511 1511 1511 1512 1512 1512 1512 1512 1512 1512 1512 1512 1513 1513 1513 1513 1512 1512 1512 1512 1512 1512 1512 1512 1512 1512 1511 1511 1511 1510 1510 1509 1509 1508 1508
1477 1478 1479 1481 1482 1482 1483 1485 1486 1488 1490 1491 1492 1493 1494 1495 1496 1496 1497 1499 1500 1500 1501 1501 1502 1503 1504 1505 1506 1507 1508 1509 1509 1509 1510 1510 1510 1511 1511 1511 1511 1511 1511 1511 1512 1512 1512 1511 1511 1511 1511 1511 1511 1510 1510 1510 1510 1510 1510 1509 1509 1509 1508 1508 1507 1507 1506 1506 1505
1477 1478 1479 1480 1481 1482 1483 1484 1486 1487 1488 1490 1491 1492 1492 1493 1495 1496 1496 1497 1498 1499 1499 1500 1501 1502 1503 1504 1505 1506 1507 1507 1508 1508 1508 1509 1509 1509 1510 1510 1510 1510 1510 1510 1510 1510 1510 1510 1510 1509 1509 1509 1509 1508 1508 1508 1508 1507 1507 1507 1507 1506 1506 1505 1505 1504 1504 1503 1503
1477 1478 1478 1479 1480 1481 1482 1484 1485 1487 1488 1489 1490 1491 1492 1493 1494 1495 1495 1496 1497 1497 1498 1499 1500 1501 1502 1502 1504 1505 1505 1506 1506 1507 1507 1508 1508 1509 1509 1509 1509 1509 1509 1509 1509 1509 1509 1508 1508 1508 1507 1507 1507 1507 1506 1506 1506 1506 1505 1505 1505 1504 1503 1503 1502 1502 1502 1501 1501
1478 1478 1478 1479 1480 1481 1482 1483 1485 1486 1487 1488 1489 1491 1492 1492 1493 1494 1495 1495 1496 1496 1497 1498 1498 1499 1500 1502 1502 1503 1504 1504 1505 1505 1506 1507 1507 1507 1507 1507 1507 1507 1507 1507 1507 1507 1507 1507 1507 1506 1506 1505 1505 1504 1504 1504 1504 1504 1503 1503 1502 1502 1502 1501 1500 1500 1499 1499 1498
1478 1479 1479 1479 1479 1480 1482 1483 1484 1485 1486 1487 1489 1490 1491 1492 1492 1493 1494 1494 1495 1495 1496 1497 1498 1499 1500 1501 1501 1502 1502 1503 1503 1504 1504 1505 1505 1505 1505 1506 1506 1505 1505 1505 1505 1505 1505 1505 1504 1504 1503 1503 1503 1502 1502 1502 1502 1502 1501 1501 1501 1500 1500 1499 1498 1498 1497 1497 1496
1478 1479 1480 1479 1479 1480 1481 1482 1483 1484 1485 1486 1487 1488 1489 1491 1492 1492 1493 1493 1494 1495 1495 1496 1497 1498 1499 1499 1500 1500 1501 1501 1502 1502 1502 1503 1503 1503 1503 1503 1503 1503 1503 1503 1503 1503 1503 1502 1502 1502 1502 1501 1501 1501 1500 1500 1500 1500 1499 1499 1499 1498 1498 1497 1497 1496 1496 1495 1494
1478 1478 1479 1479 1479 1479 1480 1481 1482 1483 1484 1485 1486 1487 1488 1489 1490 1491 1492 1492 1493 1493 1494 1495 1496 1496 1497 1497 1498 1498 1499 1500 1500 1500 1501 1501 1501 1501 1501 1502 1502 1501 1501 1501 1501 1501 1501 1501 1501 1500 1500 1500 1499 1499 1498 1498 1498 1498 1497 1497 1497 1497 1497 1496 1495 1495 1494 1493 1492
1477 1478 1478 1479 1479 1479 1479 1480 1481 1482 1482 1484 1485 1486 1487 1488 1489 1490 1490 1491 1491 1492 1492 1493 1494 1495 1495 1496 1497 1497 1497 1498 1498 1498 1499 1499 1499 1499 1499 1499 1499 1499 1499 1499 1499 1499 1499 1499 1499 1499 1498 1498 1498 1497 1497 1497 1496 1496 1496 1496 1495 1495 1495 1494 1494 1493 1492 1492 1491
1477 1477 1477 1478 1478 1479 1479 1480 1480 1481 1482 1483 1484 1485 1486 1487 1488 1488 1489 1490 1490 1491 1492 1492 1492 1493 1494 1495 1495 1496 1496 1496 1497 1497 1497 1497 1497 1497 1497 1497 1497 1497 1497 1497 1497 1497 1497 1497 1497 1497 1497 1497 1497 1496 1496 1495 1495 1495 1494 1494 1494 1493 1493 1492 1492 1492 1491 1491 1490
1476 1477 1477 1478 1478 1479 1479 1480 1481 1481 1482 1483 1484 1484 1485 1486 1487 1487 1488 1488 1489 1490 1490 1491 1492 1492 1492 1493 1493 1494 1494 1495 1495 1495 1495 1496 1496 1496 1496 1496 1496 1496 1496 1496 1496 1496 1496 1496 1496 1495 1495 1495 1495 1495 1494 1494 1494 1493 1493 1492 1492 1492 1491 1491 1490 1490 1489 1489 1488
1476 1477 1477 1478 1479 1479 1480 1480 1481 1482 1482 1483 1483 1484 1485 1485 1486 1486 1487 1487 1488 1488 1489 1490 1490 1491 1492 1492 1492 1493 1493 1493 1494 1494 1494 1494 1494 1494 1494 1494 1495 1495 1495 1495 1495 1494 1494 1494 1494 1494 1494 1494 1494 1493 1493 1493 1492 1492 1492 1491 1491 1490 1490 1489 1489 1488 1488 1487 1487
1476 1477 1477 1478 1479 1479 1480 1480 1481 1481 1482 1482 1483 1483 1484 1484 1485 1485 1486 1487 1487 1487 1488 1489 1489 1490 1490 1491 1491 1492 1492 1492 1492 1492 1493 1493 1493 1493 1493 1493 1493 1493 1493 1493 1493 1493 1493 1493 1493 1493 1493 1493 1492 1492 1492 1492 1491 1491 1490 1490 1489 1489 1488 1488 1487 1487 1487 1486 1486
1476 1477 1477 1478 1478 1479 1479 1480 1480 1481 1481 1482 1482 1482 1483 1483 1484 1485 1485 1486 1486 1487 1487 1488 1488 1489 1489 1490 1490 1490 1491 1491 1491 1491 1491 1491 1491 1491 1491 1492 1492 1492 1492 1491 1491 1491 1491 1492 1492 1492 1492 1492 1491 1491 1491 1490 1490 1489 1489 1488 1488 1487 1487 1487 1486 1486 1485 1485 1485
1476 1477 1477 1478 1478 1478 1479 1479 1480 1480 1480 1481 1481 1482 1482 1482 1483 1484 1484 1485 1485 1486 1486 1487 1487 1487 1488 1488 1488 1489 1489 1489 1490 1490 1490 1490 1490 1490 1490 1490 1490 1490 1490 1490 1490 1490 1490 1490 1490 1491 1491 1490 1490 1490 1489 1489 1489 1488 1488 1487 1487 1487 1486 1486 1485 1485 1484 1484 1483
1476 1477 1477 1477 1478 1478 1479 1479 1479 1479 1480 1480 1481 1481 1481 1482 1482 1482 1483 1483 1484 1484 1484 1485 1485 1486 1486 1486 1487 1487 1487 1488 1488 1488 1488 1488 1488 1488 1488 1488 1488 1488 1488 1489 1489 1489 1489 1489 1489 1489 1489 1489 1489 1489 1488 1488 1487 1487 1487 1486 1486 1485 1485 1484 1484 1483 1483 1483 1482
1476 1477 1477 1477 1477 1478 1478 1478 1479 1479 1479 1479 1480 1480 1481 1481 1481 1482 1482 1482 1482 1482 1483 1483 1483 1484 1484 1485 1485 1485 1486 1486 1486 1487 1487 1487 1487 1487 1487 1487 1487 1487 1487 1487 1487 1488 1488 1488 1488 1488 1488 1488 1488 1487 1487 1487 1486 1486 1486 1485 1485 1484 1484 1483 1483 1482 1482 1482 1482
1476 1477 1477 1477 1477 1477 1477 1478 1478 1478 1478 1479 1479 1479 1479 1480 1480 1480 1481 1481 1481 1481 1482 1482 1482 1482 1482 1483 1483 1484 1484 1485 1485 1485 1485 1485 1485 1485 1486 1486 1486 1486 1486 1487 1487 1487 1487 1487 1487 1487 1487 1487 1487 1487 1486 1486 1485 1485 1484 1484 1483 1483 1483 1482 1482 1482 1481 1481 1481
1476 1476 1477 1477 1477 1477 1477 1477 1477 1477 1477 1477 1477 1477 1478 1478 1478 1479 1479 1479 1480 1480 1480 1481 1481 1481 1481 1482 1482 1482 1483 1483 1484 1484 1484 1484 1484 1484 1485 1485 1485 1485 1485 1485 1485 1486 1486 1486 1486 1486 1486 1486 1486 1486 1485 1485 1484 1484 1483 1483 1482 1482 1482 1481 1481 1481 1480 1480 1480
1476 1476 1476 1476 1476 1476 1476 1476 1476 1476 1476 1476 1476 1476 1476 1477 1477 1477 1477 1478 1478 1478 1479 1479 1479 1480 1480 1480 1481 1481 1482 1482 1482 1483 1483 1483 1483 1484 1484 1484 1484 1484 1484 1484 1484 1484 1485 1485 1485 1485 1485 1485 1485 1484 1484 1484 1483 1483 1482 1482 1482 1481 1481 1480 1480 1480 1480 1479 1479
1476 1476 1476 1476 1475 1475 1475 1475 1474 1474 1474 1474 1474 1475 1475 1475 1476 1476 1476 1477 1477 1477 1477 1477 1478 1478 1479 1479 1480 1480 1480 1481 1481 1482 1482 1482 1483 1483 1483 1483 1483 1483 1483 1483 1483 1483 1483 1483 1483 1483 1483 1484 1483 1483 1483 1483 1482 1482 1481 1481 1481 1480 1480 1479 1479 1479 1479 1479 1479
1475 1475 1475 1475 1474 1474 1474 1473 1473 1473 1473 1473 1473 1473 1474 1474 1474 1475 1475 1475 1475 1476 1476 1476 1477 1477 1477 1478 1478 1479 1479 1480 1480 1481 1481 1482 1482 1482 1482 1482 1482 1482 1482 1482 1482 1482 1482 1482 1482 1482 1482 1482 1482 1482 1482 1482 1481 1481 1480 1480 1480 1479 1479 1478 1478 1478 1478 1478 1478
1474 1474 1474 1474 1473 1473 1473 1472 1472 1472 1472 1472 1472 1472 1472 1473 1473 1474 1474 1474 1474 1475 1475 1475 1476 1476 1477 1477 1477 1478 1478 1479 1479 1480 1480 1480 1481 1481 1481 1481 1480 1480 1480 1480 1481 1481 1481 1481 1481 1481 1481 1481 1481 1481 1481 1481 1480 1480 1480 1479 1479 1479 1478 1478 1477 1477 1477 1477 1477